Flag for Germany Weather past 2 weeks in Falkensee, Brandenburg, Germany

Now
36 °F

Light rain. Partly sunny.


Feels Like: 27 °F
Forecast: 35 / 47 °F
Wind: 12 mph from West

Location: Berlin-Tegel

Current Time: Apr 2, 2015 at 8:57:30 AM

Latest Report: Apr 2, 2015 at 8:20 AM


Visibility: N/A

Pressure: 29.62 "Hg

Humidity: 93%

Dew point: 34 °F

Location of FalkenseeLocation

Historic Weather in Falkensee — Graph

°F

Falkensee temperature yesterday

Maximum temperature yesterday: 48 °F (at 5:20 PM)
Minimum temperature yesterday: 36 °F (at 11:20 PM)
Average temperature yesterday: 40 °F

Past Weeks' High & Low Weather Summary

 TemperatureHumidityPressure
High61 °F (Mar 25, 3:20 PM)100% (Mar 21, 5:20 AM)30.39 "Hg (Mar 21, 5:20 AM)
Low27 °F (Mar 20, 5:20 AM)14% (Mar 18, 2:20 PM)29.03 "Hg (Mar 30, 12:20 AM)
Average44 °F66%29.86 "Hg
* Reported Mar 18 6:20 AM — Apr 2 7:20 AM, Falkensee, Weather by CustomWeather, © 2015

Note: Actual official high and low records may vary slightly from our data, if they occured in-between our weather recording intervals... More about our weather records

Advertising

Falkensee weather history for previous 24 hours

 ConditionsComfort  
Time TempWeatherWind HumidityBarometerVisibility
7:20 AM
Thu, Apr 2
34 °FLight snow. Partly cloudy.12 mph100%29.59 "Hg2 mi
6:50 AM34 °FLight rain. Partly cloudy.12 mph93%29.62 "Hg3 mi
6:20 AM34 °FLight rain. Partly cloudy.13 mph100%29.62 "Hg4 mi
5:50 AM36 °FLight rain. Passing clouds.13 mph93%29.62 "Hg4 mi
5:20 AM36 °FLight rain. Passing clouds.14 mph93%29.65 "Hg4 mi
4:50 AM36 °FLight rain. Passing clouds.10 mph93%29.68 "Hg6 mi
4:20 AM36 °FLight rain. Passing clouds.14 mph93%29.68 "HgN/A
3:50 AM36 °FLight rain. Passing clouds.14 mph93%29.71 "HgN/A
3:20 AM36 °FPassing clouds.13 mph87%29.74 "HgN/A
2:50 AM36 °FPartly cloudy.13 mph87%29.74 "HgN/A
2:20 AM36 °FPartly cloudy.14 mph87%29.77 "HgN/A
1:50 AM36 °FPartly cloudy.17 mph87%29.77 "HgN/A
1:20 AM36 °FPassing clouds.15 mph81%29.80 "HgN/A
12:50 AM36 °FPassing clouds.16 mph87%29.80 "HgN/A
12:20 AM36 °FPassing clouds.16 mph87%29.80 "HgN/A
11:50 PM
Wed, Apr 1
36 °FPassing clouds.17 mph81%29.80 "HgN/A
11:20 PM36 °FClear.15 mph87%29.83 "Hg10 mi
10:50 PM37 °FPassing clouds.17 mph81%29.83 "HgN/A
10:20 PM37 °FClear.15 mph81%29.83 "Hg10 mi
9:50 PM37 °FClear.14 mph81%29.80 "Hg10 mi
9:20 PM37 °FPassing clouds.17 mph81%29.80 "HgN/A
8:50 PM39 °FPassing clouds.13 mph70%29.80 "HgN/A
8:20 PM39 °FScattered clouds.9 mph65%29.80 "HgN/A
7:50 PM37 °FSnow flurries. Partly sunny.12 mph75%29.77 "HgN/A
7:20 PM41 °FSprinkles. Partly sunny.8 mph57%29.77 "HgN/A
6:50 PM43 °FScattered clouds.10 mph53%29.77 "HgN/A
6:20 PM45 °FSprinkles. Partly sunny.16 mph46%29.74 "HgN/A
5:50 PM45 °FScattered clouds.21 mph49%29.74 "HgN/A
5:20 PM48 °FSprinkles. Scattered clouds.22 mph34%29.71 "HgN/A
4:50 PM46 °FBroken clouds.25 mph37%29.71 "HgN/A
4:20 PM46 °FBroken clouds.17 mph46%29.71 "HgN/A
3:50 PM46 °FBroken clouds.23 mph46%29.71 "HgN/A
3:20 PM45 °FBroken clouds.16 mph66%29.71 "HgN/A
2:50 PM43 °FBroken clouds.17 mph66%29.71 "HgN/A
2:20 PM41 °FBroken clouds.18 mph81%29.71 "HgN/A
1:50 PM37 °FBroken clouds.17 mph93%29.71 "HgN/A
1:20 PM45 °FSprinkles. Partly sunny.21 mph66%29.68 "HgN/A
12:50 PM45 °FSprinkles. Scattered clouds.21 mph61%29.68 "HgN/A
12:20 PM43 °FPartly sunny.22 mph71%29.68 "HgN/A
11:50 AM43 °FPartly sunny.17 mph66%29.68 "HgN/A
11:20 AM41 °FPartly sunny.21 mph76%29.68 "HgN/A
10:50 AM41 °FSprinkles. Partly sunny.22 mph76%29.68 "HgN/A
10:20 AM39 °FSprinkles. Partly sunny.18 mph81%29.65 "HgN/A
9:50 AM39 °FLight rain. Partly sunny.20 mph81%29.65 "HgN/A
9:20 AM37 °FLight rain. Partly sunny.18 mph87%29.62 "HgN/A
8:50 AM37 °FLight rain. Partly sunny.17 mph87%29.62 "HgN/A
8:20 AM37 °FLight rain. Partly sunny.15 mph87%29.62 "HgN/A
Weather by CustomWeather, © 2015

See weather overviewHow to use our weather pages